Theta_e
319 317 315 313 313 313 311 310 308 306 305 304 303 303 304 305 306 304 303 302 300 299 299 297 300 306 306 310 312 308 308 305 307 305 309 310 312 311 308 310 311 313 314 315 314 314 315
321 319 316 314 313 313 310 309 308 306 306 304 303 303 304 304 303 302 301 299 298 297 296 298 302 307 308 310 303 307 307 307 308 311 312 313 314 312 310 310 309 310 311 311 312 311 312
321 320 317 314 314 312 310 308 307 306 306 304 303 304 304 302 300 298 296 296 296 296 298 301 306 308 310 308 304 307 308 306 306 306 306 308 312 311 311 312 313 313 312 311 311 311 311
323 319 317 315 314 311 309 307 306 306 306 304 305 303 302 299 297 296 296 295 295 299 301 306 309 310 311 304 309 309 308 308 308 308 308 307 307 308 311 311 312 312 311 311 311 310 311
323 320 317 314 313 310 308 306 306 306 305 305 304 302 299 298 296 296 295 295 298 302 305 307 308 311 312 310 310 309 308 308 310 310 308 307 306 306 309 310 311 311 311 310 310 310 311
323 321 317 314 312 310 307 305 305 305 304 305 303 299 298 297 297 295 295 299 301 303 307 310 310 312 313 311 308 310 310 311 311 311 308 306 304 304 304 305 309 311 310 308 308 308 309
323 320 316 313 311 308 307 306 305 304 304 302 301 299 298 297 296 295 299 304 307 309 309 313 313 311 311 307 307 309 308 307 309 311 310 307 304 304 304 305 307 308 308 308 309 309 309
321 319 315 312 309 307 306 306 304 303 302 301 301 299 298 296 295 296 299 304 303 302 303 306 312 311 306 306 310 311 310 306 306 311 310 310 309 308 308 308 309 309 309 309 309 310 309
321 318 314 311 308 307 306 305 303 302 302 302 301 299 297 295 295 299 303 302 302 303 304 307 306 307 309 310 311 312 308 306 306 307 308 308 312 312 311 310 311 311 310 309 310 309 308
320 316 312 309 307 305 304 303 302 302 302 302 300 297 295 294 300 303 304 301 302 305 310 311 306 309 309 310 310 311 311 311 310 308 308 309 309 310 311 312 311 312 311 312 312 311 310
316 312 309 307 305 303 302 303 304 302 301 300 296 296 295 294 299 303 301 301 302 307 317 307 309 309 307 308 308 311 311 309 310 310 310 310 310 310 311 311 311 313 313 313 312 310 313
311 309 307 305 303 302 303 302 300 300 298 296 296 295 294 299 300 303 301 301 304 315 315 307 309 309 305 305 306 311 310 309 309 310 309 308 308 308 308 310 311 312 312 312 310 310 314
305 304 303 303 302 300 299 298 297 296 296 295 295 295 294 299 303 302 301 304 313 315 307 306 306 305 304 303 303 302 306 305 310 306 308 311 312 310 308 308 310 312 312 313 314 314 315
303 302 301 300 299 299 298 298 296 296 296 295 294 294 298 300 302 303 305 308 312 307 305 304 302 301 301 302 302 304 302 301 302 312 314 313 312 312 312 309 310 311 312 317 317 315 315
299 298 298 298 298 298 298 296 296 296 296 294 293 296 301 303 301 303 305 310 306 304 302 301 301 301 302 303 303 302 302 302 310 310 313 315 314 311 310 312 312 312 314 315 319 317 317
299 298 299 298 298 296 295 295 295 295 295 293 299 301 303 301 302 304 305 309 303 301 301 301 300 301 302 302 302 302 302 305 310 307 306 308 310 309 310 314 313 314 312 316 318 324 322
298 298 297 297 296 296 295 296 296 295 294 293 297 302 301 300 304 305 305 306 302 301 300 300 301 301 301 302 301 302 302 304 305 305 305 307 309 308 308 312 316 316 316 316 318 318 320
298 298 297 297 296 296 296 296 295 294 294 294 300 304 300 303 306 307 305 303 300 301 300 300 301 302 302 302 302 302 302 306 307 306 305 307 307 308 306 305 306 315 318 317 319 319 321
298 298 297 297 296 296 296 296 294 294 295 298 301 300 299 303 304 304 302 301 300 300 300 300 301 301 301 301 301 302 303 306 305 305 305 306 304 304 301 306 310 314 313 313 314 319 319
297 298 297 296 296 296 296 294 293 294 294 297 301 301 300 301 300 304 301 301 301 300 299 299 299 300 300 303 302 303 303 304 304 306 306 304 305 304 303 304 306 308 310 310 314 320 321
297 297 295 295 296 296 295 292 292 293 294 298 301 302 302 301 301 301 301 300 300 300 299 299 300 302 302 301 301 301 301 301 302 306 305 303 304 305 305 305 306 308 308 310 315 319 320
297 296 295 295 296 296 294 293 293 292 295 299 299 302 298 299 299 300 297 300 299 299 299 298 299 299 298 298 299 299 299 299 300 301 303 303 304 302 304 304 305 307 309 313 314 317 318
297 294 295 295 294 295 293 293 293 293 298 299 298 300 301 299 299 300 299 299 299 299 299 299 299 299 298 298 299 299 298 298 299 299 296 301 301 301 301 305 306 311 315 313 314 316 315
296 295 295 295 294 295 292 291 291 293 295 297 299 299 300 298 299 300 299 300 299 299 298 299 299 299 300 299 298 298 298 298 298 298 299 300 302 304 304 305 312 313 312 314 312 309 310
296 296 295 295 295 294 293 292 291 292 296 298 299 299 299 299 299 299 299 299 299 300 299 300 301 300 298 299 298 299 299 301 301 300 299 300 301 305 308 308 314 313 312 312 313 310 306
295 296 295 294 294 294 292 291 292 292 298 299 298 298 299 298 299 300 299 300 297 297 298 299 300 299 299 294 296 301 301 303 308 305 301 302 303 305 309 311 316 310 306 307 310 311 303
295 295 295 295 294 293 292 291 292 293 296 298 298 298 299 295 299 299 298 298 298 297 295 297 298 298 299 294 295 299 304 303 309 307 305 305 306 307 307 309 311 304 305 306 310 309 300
294 294 294 294 294 293 293 294 293 292 294 298 298 298 298 294 297 300 300 298 297 296 294 296 295 298 297 298 303 299 300 304 309 309 306 306 310 313 311 312 309 301 304 307 304 300 298
294 294 293 294 293 293 293 293 292 291 293 297 298 297 297 294 296 297 297 297 298 298 297 296 297 297 297 296 299 300 302 303 308 311 309 311 310 310 309 307 301 298 299 299 299 299 296
Wind_Speed
45 43 42 37 36 34 28 24 23 21 18 17 15 14 13 13 15 17 20 22 22 24 23 22 17 14 8 4 11 19 7 3 3 6 6 7 8 8 12 6 12 15 15 16 16 18 20
49 48 45 41 41 37 30 26 24 23 20 18 16 14 13 14 16 19 21 23 23 23 22 18 17 9 4 7 12 14 3 5 5 10 11 13 8 10 11 11 11 12 13 12 7 9 6
54 52 50 44 44 39 34 29 26 23 21 18 15 13 13 14 17 20 21 22 23 21 18 15 10 7 8 18 11 17 13 11 11 15 7 20 16 6 7 8 9 8 13 11 8 8 11
55 54 51 47 46 41 36 30 26 23 20 17 15 14 14 14 16 19 21 23 21 18 16 8 6 8 8 15 11 16 17 15 17 17 16 19 17 6 5 6 10 6 7 8 4 9 12
56 55 52 49 47 42 36 31 28 25 19 18 15 14 13 15 16 17 20 20 17 14 10 6 5 7 8 9 7 15 12 14 14 18 17 13 9 4 6 5 5 5 9 11 15 13 15
54 58 53 48 47 43 36 32 28 24 18 18 14 12 11 15 19 19 18 15 13 12 7 7 11 3 8 3 5 4 3 6 4 5 3 4 2 3 3 3 8 6 8 9 9 7 5
49 53 52 49 45 36 31 28 24 20 18 15 13 10 11 14 18 18 20 3 2 3 7 9 10 6 8 14 16 9 13 9 5 6 5 7 4 8 11 13 16 15 16 17 11 8 12
41 51 49 47 43 36 31 26 22 18 16 13 12 10 11 14 18 13 13 4 5 1 6 15 19 16 15 9 5 10 10 7 7 9 8 7 10 13 15 16 15 16 17 12 9 8 8
39 49 52 47 37 32 29 23 20 18 15 12 11 10 12 11 13 10 4 5 3 3 3 7 12 14 9 9 5 1 7 7 7 7 9 12 11 13 16 14 15 15 10 9 12 7 9
42 53 46 41 34 31 26 22 19 18 14 11 9 11 9 9 6 7 1 3 6 2 2 4 7 6 4 6 6 14 5 1 2 10 13 11 10 16 18 14 14 14 7 11 12 9 8
41 43 43 39 31 30 25 21 21 16 10 9 7 10 9 4 6 2 5 3 3 1 2 11 7 6 2 6 7 6 7 3 7 9 6 7 9 10 14 14 13 15 8 13 5 9 8
43 42 41 34 31 27 25 20 14 13 9 8 6 9 8 5 5 4 6 1 2 1 4 5 6 5 3 7 9 4 5 4 4 5 9 12 13 10 11 11 6 5 7 6 5 5 12
40 36 31 30 30 26 20 16 10 6 8 6 6 10 7 3 0 3 0 1 2 2 5 4 3 2 3 5 9 11 2 5 4 6 7 15 18 17 15 15 7 2 2 3 3 4 12
28 31 29 25 24 21 17 12 9 9 9 7 7 7 5 6 4 1 1 2 2 5 9 5 5 7 5 5 6 2 6 7 11 7 5 7 11 4 9 14 7 7 7 5 7 6 8
22 21 21 20 18 18 15 11 10 8 7 6 5 5 4 6 3 3 1 3 2 6 5 6 6 4 5 6 7 7 6 6 4 8 4 5 6 16 17 13 3 6 10 6 9 13 7
19 20 21 21 18 15 13 10 8 6 5 5 2 7 6 5 2 2 3 2 5 9 7 7 3 5 5 10 6 9 4 4 4 11 9 5 8 6 12 13 6 3 5 1 2 4 5
18 19 18 17 15 12 10 10 7 6 4 4 3 2 4 5 3 2 2 1 7 9 7 6 7 6 7 6 7 6 5 8 9 8 6 6 3 7 9 3 7 7 5 4 4 4 3
16 20 20 18 15 13 12 9 6 4 3 4 4 2 5 4 2 2 2 4 2 5 3 1 0 4 2 5 5 5 7 3 5 6 5 2 3 4 15 19 20 8 10 4 4 5 2
16 20 19 16 14 12 10 7 5 2 2 1 2 3 3 1 2 0 3 6 3 2 2 4 4 4 4 4 3 4 6 7 2 3 2 3 3 5 14 8 0 3 4 8 14 2 6
15 19 16 13 11 10 9 6 4 2 1 2 1 2 1 1 2 3 4 4 5 4 1 1 4 5 5 3 5 4 7 3 6 2 7 3 3 5 9 12 13 18 19 14 10 5 3
17 16 13 11 11 9 7 6 4 2 2 3 2 1 2 0 1 6 3 1 4 2 2 4 3 3 3 2 5 7 8 8 8 5 3 3 5 6 13 18 17 18 19 23 18 13 6
17 15 12 11 11 8 6 6 5 2 5 2 3 2 3 3 4 4 2 4 4 7 4 5 5 9 7 5 6 9 10 7 5 5 3 4 3 6 13 16 19 17 20 4 6 4 4
16 13 13 12 11 8 6 6 5 7 7 4 2 3 3 3 4 3 0 6 8 5 1 2 4 5 6 8 7 8 9 9 9 9 4 3 1 3 7 10 15 9 10 9 4 11 9
16 14 13 12 11 8 6 5 7 7 11 4 3 3 3 2 3 4 8 6 5 1 0 4 5 4 5 7 7 9 14 18 17 16 11 9 6 4 6 8 4 6 6 16 19 17 17
13 12 11 10 9 8 6 7 7 5 9 10 12 6 3 1 7 7 5 2 6 7 6 5 8 5 4 5 4 7 5 4 9 20 16 14 9 3 3 3 4 1 5 9 6 10 14
11 14 11 10 11 10 6 6 8 6 10 12 14 12 3 3 5 8 4 7 3 4 6 6 7 9 5 3 2 3 3 5 4 2 14 14 11 5 3 5 1 5 18 16 4 5 13
13 12 11 12 12 9 6 5 7 7 7 11 9 11 5 3 5 6 4 3 3 3 1 3 7 6 4 2 2 3 4 5 3 3 7 5 5 11 10 5 3 16 17 11 5 4 10
15 13 11 14 13 9 7 5 6 6 6 10 7 11 5 2 4 5 5 4 3 2 2 4 4 4 3 2 2 3 2 3 4 0 2 5 3 2 2 3 4 22 8 6 4 8 9
16 13 11 16 14 10 7 6 6 6 6 7 3 5 5 3 3 5 7 10 7 2 2 2 2 0 2 2 3 3 3 4 7 3 5 3 2 2 6 4 8 13 13 12 9 9 10
Wind_Direction
241 236 234 232 227 226 223 220 223 225 229 238 247 256 265 276 284 289 294 296 299 300 304 308 312 317 333 229 249 276 272 255 234 182 213 237 245 237 248 257 255 253 251 253 248 246 249
242 238 231 230 221 222 219 216 220 226 225 233 242 251 262 271 282 289 293 296 297 298 301 306 303 298 250 252 265 227 265 240 228 216 244 234 244 249 253 256 250 260 275 276 287 301 293
236 233 229 225 217 216 215 214 220 223 229 230 236 244 255 272 284 290 295 297 298 299 299 300 290 227 249 245 262 278 283 231 249 263 265 275 270 280 303 316 273 297 296 291 302 302 294
238 228 223 216 215 214 212 212 216 219 226 235 239 241 259 271 283 292 295 298 296 295 294 280 268 214 253 266 279 275 270 273 252 248 260 283 302 311 300 305 316 334 301 279 270 260 269
237 226 220 211 211 208 210 213 212 212 221 227 236 256 269 283 286 291 297 294 287 292 273 256 224 208 258 308 227 255 233 235 255 250 233 262 290 261 319 289 301 256 257 273 275 248 248
237 229 215 206 204 204 207 207 211 211 216 225 237 249 271 292 298 301 296 291 283 272 264 227 256 238 257 247 322 273 257 305 306 319 179 213 292 241 270 235 235 233 248 251 262 268 321
238 219 211 201 197 196 197 201 201 208 209 226 232 251 283 295 300 303 310 3 99 204 245 201 183 221 311 319 318 272 260 255 270 263 229 208 172 231 230 226 237 254 266 273 281 307 330
237 216 201 194 191 188 189 189 191 200 207 216 237 260 283 297 300 290 296 259 73 193 300 240 251 259 269 274 286 257 226 188 221 225 244 247 225 226 231 246 252 246 251 261 284 292 271
231 211 198 189 180 178 177 183 186 197 200 209 241 264 284 291 299 290 234 19 26 4 253 279 215 226 241 180 250 238 153 201 247 247 243 243 250 231 232 242 251 258 263 257 264 264 266
223 198 183 173 171 169 171 175 181 191 194 214 243 271 273 297 292 306 299 52 9 52 308 200 192 220 172 215 248 230 187 69 252 232 248 254 250 262 268 256 231 252 267 285 290 278 272
197 172 166 162 162 159 165 172 173 171 189 214 236 256 256 247 298 322 48 24 340 3 310 155 151 144 223 210 317 178 139 199 245 265 282 272 297 283 265 268 272 257 241 268 294 302 314
158 151 148 150 152 156 155 153 160 163 193 223 224 248 259 210 231 335 330 63 343 60 255 153 142 178 238 241 233 134 185 218 252 280 278 274 275 272 261 277 250 283 296 287 311 287 269
119 125 129 134 135 131 139 142 154 179 202 210 226 240 238 261 191 317 6 113 94 199 176 132 104 101 311 304 308 297 229 282 211 307 271 263 262 252 252 266 273 318 322 319 295 219 256
106 114 121 127 136 140 138 145 156 180 216 213 232 252 206 225 264 201 280 119 216 16 52 29 24 321 271 262 267 337 19 354 330 5 322 277 287 13 353 242 216 204 218 196 236 237 270
123 127 131 134 137 137 134 148 173 185 218 223 239 223 229 177 188 263 130 117 49 22 20 3 318 283 284 65 13 28 16 298 56 48 12 328 287 332 324 313 320 230 220 203 270 293 289
127 131 132 130 129 135 140 149 160 194 220 227 205 228 146 153 137 273 83 254 102 56 27 10 350 354 356 7 16 8 338 12 62 41 8 335 306 326 320 346 296 247 181 143 193 255 236
134 137 130 129 129 125 132 150 174 197 214 213 232 180 154 148 150 57 139 178 89 85 43 12 10 349 359 347 343 318 312 2 32 7 9 21 301 301 315 266 274 292 310 279 172 235 269
147 145 136 136 136 140 150 159 178 191 213 207 259 110 171 162 93 218 135 41 313 75 114 32 177 257 256 3 357 345 317 26 28 346 343 86 283 288 280 277 287 276 234 285 263 241 245
150 148 140 139 138 140 142 144 148 147 145 319 237 130 171 120 114 181 139 106 44 37 52 26 347 12 15 339 324 301 315 164 79 320 51 344 311 320 314 272 219 50 327 316 317 240 247
145 140 139 142 142 139 137 143 126 91 5 347 296 91 346 95 261 77 62 58 130 120 274 271 277 299 278 332 334 348 329 8 320 42 89 85 256 227 255 271 312 298 300 304 259 247 215
146 141 138 138 144 142 141 131 98 67 352 353 28 120 163 262 341 92 76 123 75 84 67 353 292 16 345 264 302 303 312 326 336 124 108 103 270 254 285 301 304 296 296 301 308 243 224
150 147 143 139 142 144 136 117 90 66 340 25 99 71 16 105 31 103 133 198 57 84 68 344 341 336 355 338 326 324 325 328 279 307 173 153 259 308 293 287 273 269 285 194 319 312 52
149 151 146 140 132 133 121 100 84 52 24 345 24 291 109 160 158 96 134 49 54 77 281 291 349 360 318 302 323 304 283 266 250 270 226 220 236 354 271 305 316 291 225 200 155 33 98
149 145 142 139 134 131 113 98 78 59 39 14 325 337 63 208 137 141 133 133 192 204 23 302 288 263 331 356 332 302 283 268 260 251 229 241 234 255 280 281 241 338 178 110 86 48 40
157 159 150 149 144 136 116 91 80 76 37 30 27 42 16 314 126 111 144 87 31 12 6 344 25 12 34 26 341 316 287 263 247 237 224 213 222 236 254 264 296 30 1 356 115 56 33
164 161 150 147 148 144 122 98 83 90 57 63 42 29 22 77 342 52 61 62 59 10 359 350 6 344 17 82 31 270 301 335 285 299 199 209 200 188 265 302 332 19 326 319 195 80 25
160 160 157 157 152 139 129 124 97 90 71 61 41 26 53 80 18 44 68 74 41 44 294 352 338 353 39 42 240 242 249 280 283 293 164 152 172 222 237 238 71 349 336 310 60 48 48
166 169 170 165 151 141 144 132 124 103 94 58 54 51 63 71 304 29 34 42 22 81 105 301 12 7 0 1 301 326 305 295 294 166 236 179 216 248 238 77 31 356 28 57 80 63 77
174 170 162 166 170 161 149 134 129 114 99 64 69 53 53 92 243 317 287 271 254 280 103 12 166 124 42 352 359 323 275 263 347 349 12 23 7 52 25 69 69 42 61 51 60 82 79